Location: Chattahoochee River National Recreation Area
(34.0022°N, 84.2416°W)
Time: 12:07:44
(UTC-05:00)

Daily predictions for brighter satellites

Satellite Brightness Start Highest point End
(mag) Time Altitude Azimuth Time Altitude Azimuth Time Altitude Azimuth
Cosmos 1943 Rocket 3.4 18:11:39 10° N 18:15:44 20° ENE 18:19:44 10° ESE
Ariane Rocket 3.0 18:13:51 10° SSE 18:18:54 87° E 18:24:00 10° NNW
SKYMED 2 3.9 18:17:11 10° NNE 18:21:23 48° E 18:25:34 10° S
ERS-2 3.8 18:21:10 10° ESE 18:23:15 15° ENE 18:25:21 10° NNE
Cosmos 1908 3.2 18:19:45 10° N 18:23:36 60° E 18:27:23 10° SSE
Cosmos 1400 Rocket 3.4 18:20:21 10° SSE 18:24:00 35° E 18:27:44 10° NNE
YAOGAN 1 2.6 18:23:45 10° SSE 18:27:58 57° ENE 18:32:14 10° N
Cosmos 1809 Rocket 4.4 18:22:15 10° N 18:28:19 67° E 18:34:19 10° SSE
KORONAS-FOTON 3.7 18:29:05 10° S 18:32:54 87° E 18:36:43 10° N
H-2A R/B 4.4 18:31:26 10° ESE 18:33:27 14° ENE 18:35:30 10° NE
BREEZE-M R/B 4.1 18:30:25 10° WSW 18:34:14 53° NNW 18:46:11 10° NE
FENGYUN 3A 3.9 18:30:46 10° SE 18:35:48 44° ENE 18:40:51 10° N
SL-8 Rocket 4.3 18:32:10 10° N 18:37:58 41° E 18:43:45 10° SSE
Meteor 2-21 Rocket 4.5 18:32:13 10° N 18:38:15 59° E 18:44:12 10° SSE
Cosmos 1503 Rocket 4.0 18:33:47 10° NNW 18:39:05 68° ENE 18:44:25 10° SSE
CZ-4 R/B 2.3 18:41:11 10° S 18:45:16 56° W 18:49:27 10° NNW
Meteor 2-21 4.4 18:39:16 10° N 18:45:22 87° E 18:51:25 10° S
Lacrosse 5 rocket 2.8 18:44:05 10° NW 18:48:21 44° SW 18:52:44 10° SSE
Cosmos 1943 3.5 18:42:53 10° SSW 18:48:30 70° WNW 18:54:07 10° NNE
GPS 2-05 Rocket1 2.8 18:48:26 10° W 18:51:29 64° SSW 18:53:43 16° ESE
Cosmos 44 4.0 18:54:43 10° SSE 18:58:19 27° ESE 18:59:39 22° E
OAO 3 Copernicus 4.4 18:53:41 10° W 18:58:44 76° SSW 19:02:48 16° ESE
EO 1 Del DPAF 3.2 18:57:18 10° NNE 19:01:08 87° WNW 19:04:58 10° SSW
Cosmos 1726 2.4 19:01:36 10° NNW 19:05:15 68° W 19:08:52 10° S
Cosmos 1408 Rocket 3.8 19:01:48 10° SSE 19:05:52 42° E 19:08:57 16° NNE
Cosmos 2221 2.7 19:03:06 10° N 19:07:28 74° W 19:11:49 10° S
COSMO-SKYMED 1 3.8 19:05:16 10° N 19:09:23 43° WNW 19:13:28 10° SW
Cosmos 44 Rocket 4.0 19:06:25 10° S 19:10:29 31° ESE 19:11:26 28° E
SL-14 R/B 3.7 19:10:37 10° SSW 19:14:36 65° W 19:18:34 10° N
Cosmos 2366 rocket 3.9 19:11:29 10° N 19:17:43 67° E 19:23:49 10° SSE
Cosmos 2263 4.1 19:12:30 10° NNW 19:18:18 78° ENE 19:24:00 10° SSE
Cosmos 968 Rocket 3.3 19:15:08 10° NNW 19:20:17 69° ENE 19:25:21 10° SSE
ATLAS 2AS CENTAUR R/B 2.9 19:17:46 10° NNW 19:25:38 87° WSW 19:32:46 10° SSE
Cosmos 1315 Rocket 2.9 19:22:10 10° SSW 19:26:06 76° W 19:29:12 16° N
TSX-5 3.0 19:23:49 10° SSW 19:26:57 83° ESE 19:27:00 82° E
Nadezhda 3 Rocket 4.2 19:22:32 10° SSE 19:28:27 45° E 19:32:36 20° NNE
Cosmos 2369 Rocket 3.0 19:27:38 10° NNW 19:33:08 54° WSW 19:38:38 10° S
Thor Agena Rocket 3.5 19:34:01 26° NNE 19:37:00 67° ESE 19:42:11 10° S
Cosmos 1300 3.8 19:35:03 10° NNW 19:38:43 45° W 19:42:21 10° SSW
Meteor 1-11 4.1 19:36:07 10° S 19:41:40 84° E 19:46:15 16° N
Meteor 1-27 4.3 19:36:16 10° N 19:41:50 53° E 19:47:26 10° SSE
OAO 3 Rocket 3.0 19:37:43 10° W 19:42:27 82° N 19:43:01 68° ENE
Cosmos 1626 2.4 19:40:32 10° SSW 19:44:12 64° W 19:44:48 53° NNW
ALOS 4.1 19:40:05 10° SSW 19:44:13 31° W 19:48:22 10° NW
NOSS 3-4 (A) 4.2 19:41:13 10° NNW 19:47:52 40° NE 19:47:55 40° NE
NOSS 3-4 (C) 4.2 19:41:20 10° NNW 19:47:57 40° NE 19:47:57 40° NE
Cosmos 2058 4.4 19:47:48 10° S 19:49:39 26° S 19:49:39 26° S
GEOS 3 Rocket 3.6 19:53:26 38° SSE 19:55:35 88° WSW 20:00:58 10° NNW
Meteor 2-2 Rocket 4.4 19:49:54 10° NNW 19:55:38 72° W 20:01:15 10° S
ERS-2 4.2 19:53:28 10° SSW 19:56:37 27° W 19:59:49 10° NW
Cosmos 1943 Rocket 3.1 19:54:20 10° NNW 19:59:41 48° WSW 20:04:58 10° S
USA 81 3.9 19:55:32 10° S 20:00:25 75° SE 20:00:25 75° SE
Cosmos 1656 Rocket 4.1 19:55:31 10° NNW 19:59:27 46° N 19:59:27 46° N
COSMOS 2406 3.2 19:58:45 10° S 20:03:48 64° SSE 20:03:48 64° SSE
